Flag for Malaysia Weather past 2 weeks in Kota Kinabalu, Malaysia

Now
90 °F

Broken clouds.


Feels Like: 98 °F
Forecast: 76 / 88 °F
Wind: 9 mph from Southwest

Location: Brunei Airport

Current Time: Oct 2, 2014 at 12:33:40 PM

Latest Report: Oct 2, 2014 at 12:00 PM


Visibility: N/A

Pressure: 29.83 "Hg

Humidity: 59%

Dew point: 73 °F

Location of Kota KinabaluLocation

Historic Weather in Kota Kinabalu — Graph

°F

Kota Kinabalu temperature yesterday

Maximum temperature yesterday: 90 °F (at 11:30 AM)
Minimum temperature yesterday: 75 °F (at 6:00 AM)
Average temperature yesterday: 81 °F

Past Weeks' High & Low Weather Summary

 TemperatureHumidityPressure
High93 °F (Sep 17, 3:30 PM)100% (Sep 18, 6:30 AM)29.95 "Hg (Sep 18, 6:30 AM)
Low73 °F (Sep 26, 6:00 AM)49% (Sep 17, 3:30 PM)29.25 "Hg (Sep 19, 7:30 PM)
Average83 °F82%29.85 "Hg
* Reported Sep 17 11:00 AM — Oct 2 11:30 AM, Kota Kinabalu, Weather by CustomWeather, © 2014

Note: Actual official high and low records may vary slightly from our data, if they occured in-between our weather recording intervals... More about our weather records

Advertising

Kota Kinabalu weather history for previous 24 hours

 ConditionsComfort  
Time TempWeatherWind HumidityBarometerVisibility
11:30 AM
Oct 2
90 °FBroken clouds.8 mph63%29.83 "HgN/A
11:00 AM90 °FBroken clouds.7 mph55%29.86 "HgN/A
10:30 AM88 °FBroken clouds.8 mph66%29.86 "HgN/A
10:00 AM86 °FBroken clouds.8 mph70%29.89 "HgN/A
9:30 AM86 °FBroken clouds.9 mph70%29.89 "HgN/A
9:00 AM84 °FScattered clouds.6 mph74%29.89 "HgN/A
8:30 AM81 °FPartly sunny.2 mph84%29.89 "HgN/A
8:00 AM79 °FPartly sunny.5 mph89%29.86 "HgN/A
7:30 AM77 °FBroken clouds.7 mph94%29.86 "HgN/A
7:00 AM75 °FBroken clouds.5 mph94%29.83 "HgN/A
6:30 AM75 °FBroken clouds.2 mph94%29.83 "HgN/A
6:00 AM75 °FPartly cloudy.5 mph94%29.83 "HgN/A
5:30 AM75 °FPassing clouds.5 mph94%29.83 "HgN/A
5:00 AM75 °FPassing clouds.5 mph94%29.83 "HgN/A
4:30 AM75 °FPassing clouds.5 mph94%29.83 "HgN/A
4:00 AM75 °FPassing clouds.5 mph94%29.83 "HgN/A
3:30 AM75 °FPassing clouds.5 mph94%29.80 "HgN/A
3:00 AM75 °FPartly cloudy.3 mph94%29.83 "HgN/A
2:30 AM77 °FPartly cloudy.3 mph89%29.83 "HgN/A
2:00 AM77 °FPartly cloudy.3 mph89%29.83 "HgN/A
1:30 AM77 °FPassing clouds.5 mph89%29.83 "HgN/A
1:00 AM77 °FPassing clouds.3 mph89%29.83 "HgN/A
12:30 AM77 °FPassing clouds.2 mph89%29.83 "HgN/A
12:00 AM77 °FPassing clouds.5 mph89%29.83 "HgN/A
11:30 PM
Oct 1
77 °FPassing clouds.3 mph89%29.86 "HgN/A
11:00 PM77 °FPassing clouds.3 mph94%29.86 "HgN/A
10:30 PM77 °FPassing clouds.3 mph94%29.86 "HgN/A
10:00 PM77 °FPassing clouds.5 mph94%29.86 "HgN/A
9:30 PM77 °FPassing clouds.3 mph94%29.86 "HgN/A
9:00 PM79 °FPassing clouds.3 mph84%29.86 "HgN/A
8:30 PM79 °FPassing clouds.5 mph84%29.86 "HgN/A
8:00 PM79 °FPassing clouds.5 mph84%29.83 "HgN/A
7:30 PM79 °FPassing clouds.5 mph84%29.83 "HgN/A
7:00 PM79 °FSprinkles. Passing clouds.5 mph84%29.83 "HgN/A
6:30 PM81 °FPassing clouds.5 mph84%29.83 "HgN/A
6:00 PM81 °FPartly sunny.7 mph84%29.83 "HgN/A
5:30 PM81 °FBroken clouds.7 mph84%29.80 "HgN/A
5:00 PM81 °FPartly sunny.5 mph89%29.80 "HgN/A
4:30 PM81 °FBroken clouds.9 mph84%29.80 "HgN/A
4:00 PM82 °FBroken clouds.14 mph79%29.80 "HgN/A
3:30 PM86 °FPartly sunny.5 mph75%29.77 "HgN/A
3:00 PM84 °FThunderstorms. Partly sunny.5 mph74%29.77 "HgN/A
2:30 PM84 °FThunderstorms. Scattered clouds.6 mph74%29.80 "HgN/A
2:00 PM88 °FThunderstorms. Partly sunny.6 mph66%29.80 "Hg6 mi
1:30 PM88 °FThunderstorms. Partly sunny.12 mph66%29.80 "Hg6 mi
1:00 PM90 °FBroken clouds.13 mph63%29.83 "HgN/A
12:30 PM90 °FBroken clouds.9 mph67%29.83 "HgN/A
12:00 PM90 °FBroken clouds.8 mph63%29.83 "HgN/A
Weather by CustomWeather, © 2014

See weather overviewHow to use our weather pages